Weather History for Three Rivers, MI

Change the Weather History Date:

Friday, June 15, 2012

  Actual Average Record
Temperature  
Mean Temperature 71 °F -  
Max Temperature 88 °F 82 °F 95 °F (1987)
Min Temperature 54 °F 59 °F 44 °F (1959)
Cooling Degree Days 6    
Growing Degree Days 21 (Base 50)    
Moisture  
Dew Point 49 °F    
Average Humidity 46    
Maximum Humidity 81    
Minimum Humidity 21    
Precipitation  
Precipitation 0.00 in - - ()
Sea Level Pressure  
Sea Level Pressure 30.13 in    
Wind  
Wind Speed 4 mph (SE)    
Max Wind Speed 10 mph    
Max Gust Speed -    
Visibility 10 miles    
Events      
Averages and records for this station are not official NWS values.
T = Trace of Precipitation, MM = Missing Value Source: NWS Daily Summary

Daily Weather History Graph

Daily Weather History Graph

Search for Another Location

Airport:

Trip Planner

Search our weather history database for the weather conditions in past years. The results will help you decide how hot, cold, wet, or windy it might be!

Date:

Astronomy

Jun. 15, 2012 Rise Set
Actual Time 6:06 AM EDT 9:19 PM EDT
Civil Twilight 5:31 AM EDT 9:54 PM EDT
Nautical Twilight 4:47 AM EDT 10:38 PM EDT
Astronomical Twilight 3:54 AM EDT 11:32 PM EDT
Moon 3:22 AM EDT (6/15) 5:57 PM EDT (6/15)
Length of Visible Light 16h 22m
Length of Day
15h 13m
Waning Crescent, 14% of the Moon is Illuminated
Jun 15
Waning Crescent
Jun 19
New
Jun 26
First Quarter
Jul 3
Full
Jul 10
Last Quarter

Hourly Weather History & Observations

Time (EDT) Temp. Dew Point Humidity Pressure Visibility Wind Dir Wind Speed Gust Speed Precip Events Conditions
12:14 AM 67.5 °F 46.4 °F 47% 30.11 in 10.0 mi ESE 8.1 mph - N/A   Clear
12:34 AM 66.4 °F 46.9 °F 50% 30.12 in 10.0 mi ESE 4.6 mph - N/A   Clear
12:54 AM 65.5 °F 47.7 °F 53% 30.13 in 10.0 mi ESE 5.8 mph - N/A   Clear
1:14 AM 64.4 °F 48.4 °F 56% 30.12 in 10.0 mi ESE 4.6 mph - N/A   Clear
1:34 AM 63.9 °F 48.9 °F 58% 30.12 in 10.0 mi ESE 4.6 mph - N/A   Clear
1:54 AM 63.5 °F 49.1 °F 59% 30.12 in 10.0 mi ESE 3.5 mph - N/A   Clear
2:14 AM 63.0 °F 49.3 °F 61% 30.12 in 10.0 mi Calm Calm - N/A   Clear
2:33 AM 62.6 °F 49.1 °F 61% 30.12 in 10.0 mi SE 4.6 mph - N/A   Clear
2:54 AM 62.8 °F 48.7 °F 60% 30.11 in 10.0 mi SE 3.5 mph - N/A   Clear
3:14 AM 62.1 °F 48.6 °F 61% 30.12 in 10.0 mi Calm Calm - N/A   Clear
3:33 AM 60.4 °F 48.2 °F 64% 30.12 in 10.0 mi Calm Calm - N/A   Clear
3:54 AM 58.3 °F 49.3 °F 72% 30.12 in 10.0 mi Calm Calm - N/A   Clear
4:14 AM 56.7 °F 49.1 °F 76% 30.13 in 10.0 mi Calm Calm - N/A   Clear
4:34 AM 56.3 °F 48.7 °F 76% 30.14 in 10.0 mi Calm Calm - N/A   Clear
4:54 AM 56.1 °F 50.0 °F 80% 30.14 in 10.0 mi Calm Calm - N/A   Clear
5:14 AM 55.6 °F 49.5 °F 80% 30.15 in 10.0 mi Calm Calm - N/A   Clear
5:34 AM 55.4 °F 49.8 °F 81% 30.15 in 10.0 mi Calm Calm - N/A   Clear
5:54 AM 55.4 °F 49.8 °F 81% 30.15 in 10.0 mi Calm Calm - N/A   Clear
6:14 AM 54.9 °F 49.1 °F 81% 30.15 in 10.0 mi Calm Calm - N/A   Clear
6:34 AM 54.9 °F 48.7 °F 80% 30.15 in 10.0 mi Calm Calm - N/A   Clear
6:54 AM 56.3 °F 49.8 °F 79% 30.15 in 10.0 mi Calm Calm - N/A   Clear
7:13 AM 59.0 °F 52.7 °F 80% 30.16 in 10.0 mi Calm Calm - N/A   Clear
7:34 AM 61.0 °F 52.9 °F 75% 30.16 in 10.0 mi Calm Calm - N/A   Clear
7:54 AM 62.6 °F 53.4 °F 72% 30.16 in 10.0 mi Calm Calm - N/A   Clear
8:14 AM 64.4 °F 53.2 °F 67% 30.15 in 10.0 mi SSE 5.8 mph - N/A   Clear
8:34 AM 66.0 °F 53.1 °F 63% 30.15 in 10.0 mi SSE 4.6 mph - N/A   Clear
8:54 AM 68.0 °F 53.6 °F 60% 30.15 in 10.0 mi SSE 3.5 mph - N/A   Clear
9:14 AM 69.3 °F 54.1 °F 59% 30.15 in 10.0 mi SSE 4.6 mph - N/A   Clear
9:34 AM 71.6 °F 54.1 °F 54% 30.15 in 10.0 mi South 4.6 mph - N/A   Clear
9:54 AM 73.2 °F 52.9 °F 49% 30.15 in 10.0 mi SSW 4.6 mph - N/A   Clear
10:14 AM 74.5 °F 53.1 °F 47% 30.15 in 10.0 mi South 3.5 mph - N/A   Clear
10:34 AM 76.3 °F 53.8 °F 45% 30.15 in 10.0 mi Calm Calm - N/A   Clear
10:53 AM 77.4 °F 52.9 °F 42% 30.15 in 10.0 mi SE 4.6 mph - N/A   Clear
11:14 AM 79.7 °F 52.2 °F 38% 30.14 in 10.0 mi South 4.6 mph - N/A   Clear
11:33 AM 80.6 °F 50.4 °F 35% 30.14 in 10.0 mi South 5.8 mph - N/A   Clear
11:54 AM 81.9 °F 48.7 °F 31% 30.15 in 10.0 mi South 10.4 mph - N/A   Clear
12:14 PM 82.4 °F 49.6 °F 32% 30.15 in 10.0 mi SSE 6.9 mph - N/A   Clear
12:33 PM 82.9 °F 49.5 °F 31% 30.15 in 10.0 mi SSE 8.1 mph - N/A   Clear
12:54 PM 84.0 °F 47.8 °F 28% 30.15 in 10.0 mi South 3.5 mph - N/A   Clear
1:14 PM 84.2 °F 47.3 °F 28% 30.15 in 10.0 mi South 6.9 mph - N/A   Clear
1:34 PM 84.7 °F 48.0 °F 28% 30.15 in 10.0 mi SSE 6.9 mph - N/A   Clear
1:54 PM 85.1 °F 46.8 °F 26% 30.15 in 10.0 mi East 6.9 mph - N/A   Clear
2:13 PM 85.6 °F 47.3 °F 26% 30.15 in 10.0 mi SE 3.5 mph - N/A   Clear
2:34 PM 86.2 °F 47.5 °F 26% 30.15 in 10.0 mi SE 3.5 mph - N/A   Clear
2:54 PM 86.2 °F 47.1 °F 26% 30.14 in 10.0 mi East 6.9 mph - N/A   Clear
3:13 PM 87.1 °F 47.3 °F 25% 30.14 in 10.0 mi ESE 6.9 mph - N/A   Clear
3:34 PM 87.1 °F 45.5 °F 23% 30.14 in 10.0 mi East 6.9 mph - N/A   Clear
3:54 PM 87.1 °F 45.3 °F 23% 30.13 in 10.0 mi East 5.8 mph - N/A   Clear
4:13 PM 87.4 °F 46.9 °F 24% 30.13 in 10.0 mi SSE 5.8 mph - N/A   Clear
4:34 PM 87.6 °F 46.9 °F 24% 30.12 in 10.0 mi East 4.6 mph - N/A   Clear
4:54 PM 87.8 °F 46.8 °F 24% 30.12 in 10.0 mi SSE 6.9 mph - N/A   Clear
5:14 PM 88.3 °F 47.1 °F 24% 30.11 in 10.0 mi ESE 5.8 mph - N/A   Clear
5:34 PM 88.0 °F 45.9 °F 23% 30.11 in 10.0 mi East 8.1 mph - N/A   Clear
5:54 PM 88.0 °F 45.5 °F 23% 30.12 in 10.0 mi SE 5.8 mph - N/A   Clear
6:14 PM 88.5 °F 44.4 °F 22% 30.11 in 10.0 mi ESE 8.1 mph - N/A   Clear
6:34 PM 87.8 °F 44.2 °F 22% 30.10 in 10.0 mi SE 8.1 mph - N/A   Clear
6:54 PM 87.4 °F 43.5 °F 22% 30.10 in 10.0 mi ESE 9.2 mph - N/A   Clear
7:14 PM 87.4 °F 42.8 °F 21% 30.10 in 10.0 mi East 5.8 mph - N/A   Clear
7:34 PM 86.9 °F 43.9 °F 22% 30.10 in 10.0 mi ESE 5.8 mph - N/A   Clear
7:54 PM 85.8 °F 45.1 °F 24% 30.10 in 10.0 mi ESE 6.9 mph - N/A   Clear
8:14 PM 84.7 °F 47.1 °F 27% 30.10 in 10.0 mi ESE 3.5 mph - N/A   Clear
8:33 PM 82.8 °F 47.7 °F 29% 30.10 in 10.0 mi ESE 3.5 mph - N/A   Clear
8:54 PM 80.4 °F 48.2 °F 32% 30.10 in 5.0 mi Calm Calm - N/A   Haze
9:14 PM 79.7 °F 49.1 °F 34% 30.10 in 10.0 mi ESE 3.5 mph - N/A   Clear
9:34 PM 77.7 °F 50.0 °F 38% 30.09 in 7.0 mi Calm Calm - N/A   Clear
9:54 PM 76.1 °F 50.9 °F 41% 30.10 in 10.0 mi Calm Calm - N/A   Clear
10:34 PM 73.6 °F 51.8 °F 46% 30.10 in 10.0 mi ESE 3.5 mph - N/A   Clear
10:54 PM 75.2 °F 51.6 °F 44% 30.10 in 10.0 mi SE 4.6 mph - N/A   Clear
11:13 PM 75.0 °F 51.4 °F 44% 30.10 in 10.0 mi SE 4.6 mph - N/A   Clear
11:34 PM 74.1 °F 50.5 °F 43% 30.11 in 10.0 mi ESE 4.6 mph - N/A   Clear
11:54 PM 73.4 °F 52.9 °F 49% 30.10 in 10.0 mi ESE 5.8 mph - N/A   Clear